Miles City, MT

12:12 AM MST on February 10, 2016 (GMT -0700)
Wiley

Weather History for KMLS - January, 2014

Change the Weather History Date:

Saturday, January 11, 2014

  Actual Average Record
Temperature  
Mean Temperature 33 °F 19 °F  
Max Temperature 42 °F 29 °F 55 °F (1987)
Min Temperature 23 °F 8 °F -27 °F (1974)
Degree Days  
Heating Degree Days 32 46  
Month to date heating degree days 532 507  
Since 1 July heating degree days 3850 3691  
Cooling Degree Days 0 0  
Month to date cooling degree days 0 0  
Year to date cooling degree days 0 0  
Moisture  
Dew Point 26 °F    
Average Humidity 76    
Maximum Humidity 88    
Minimum Humidity 64    
Precipitation  
Precipitation T in 0.01 in 0.19 in (1972)
Month to date precipitation 0.02 0.13  
Year to date precipitation 0.02 0.13  
Sea Level Pressure  
Sea Level Pressure 29.56 in    
Wind  
Wind Speed 11 mph (SSW)    
Max Wind Speed 32 mph    
Max Gust Speed 42 mph    
Visibility 10 miles    
Events Rain    
T = Trace of Precipitation, MM = Missing Value Source: NWS Daily Summary

Daily Weather History Graph

Daily Weather History Graph

Search for Another Location

Airport or City:

Trip Planner

Search our weather history database for the weather conditions in past years. The results will help you decide how hot, cold, wet, or windy it might be!

Date:

Astronomy

Jan. 11, 2014 Rise Set
Actual Time 7:44 AM MST 4:38 PM MST
Civil Twilight 7:10 AM MST 5:12 PM MST
Nautical Twilight 6:33 AM MST 5:50 PM MST
Astronomical Twilight 5:57 AM MST 6:26 PM MST
Moon 1:27 PM MST (1/11) 3:49 AM MST (1/11)
Length of Visible Light 10h 01m
Length of Day
8h 53m
Waxing Gibbous, 83% of the Moon is Illuminated
Jan 11
Waxing Gibbous
Jan 15
Full
Jan 23
Last Quarter
Jan 30
New
Feb 6
First Quarter

Hourly Weather History & Observations

Time (MST) Temp. Windchill Dew Point Humidity Pressure Visibility Wind Dir Wind Speed Gust Speed Precip Events Conditions
12:53 AM 30.9 °F 26.2 °F 24.1 °F 76% 29.81 in 10.0 mi NNW 4.6 mph - N/A   Overcast
1:53 AM 30.0 °F 24.1 °F 24.1 °F 79% 29.84 in 10.0 mi WNW 5.8 mph - N/A   Overcast
2:53 AM 32.0 °F 26.4 °F 25.0 °F 75% 29.85 in 10.0 mi NW 5.8 mph - N/A   Overcast
3:53 AM 30.9 °F 25.2 °F 25.0 °F 79% 29.82 in 10.0 mi NW 5.8 mph - N/A   Overcast
4:53 AM 30.0 °F 24.1 °F 24.1 °F 79% 29.81 in 10.0 mi WNW 5.8 mph - N/A   Mostly Cloudy
5:53 AM 26.1 °F 16.8 °F 21.9 °F 84% 29.79 in 10.0 mi WSW 9.2 mph - N/A   Clear
6:53 AM 26.1 °F 18.4 °F 23.0 °F 88% 29.75 in 10.0 mi SSE 6.9 mph - N/A   Clear
7:53 AM 24.1 °F 13.1 °F 21.0 °F 88% 29.75 in 10.0 mi SSE 11.5 mph - N/A   Clear
8:53 AM 25.0 °F 14.2 °F 21.0 °F 85% 29.72 in 10.0 mi SSE 11.5 mph - N/A   Clear
9:53 AM 28.0 °F 18.1 °F 23.0 °F 81% 29.69 in 10.0 mi SSE 11.5 mph - N/A   Scattered Clouds
10:53 AM 30.0 °F 21.1 °F 24.1 °F 79% 29.62 in 10.0 mi SSE 10.4 mph - N/A   Scattered Clouds
11:53 AM 34.0 °F 25.0 °F 25.0 °F 70% 29.55 in 10.0 mi SSE 12.7 mph - N/A   Clear
12:53 PM 39.0 °F 31.8 °F 28.0 °F 65% 29.47 in 10.0 mi SSE 11.5 mph - N/A   Clear
1:53 PM 37.9 °F 30.5 °F 28.0 °F 68% 29.42 in 10.0 mi SSE 11.5 mph - N/A   Clear
2:53 PM 39.0 °F 34.0 °F 28.0 °F 65% 29.41 in 10.0 mi SSE 6.9 mph - N/A   Clear
3:53 PM 39.9 °F 33.9 °F 28.0 °F 63% 29.39 in 10.0 mi SSE 9.2 mph - N/A   Clear
4:53 PM 37.0 °F 31.6 °F 28.0 °F 70% 29.36 in 10.0 mi SSE 6.9 mph - N/A   Clear
5:53 PM 37.0 °F 28.5 °F 28.9 °F 73% 29.34 in 10.0 mi SSE 13.8 mph - N/A   Mostly Cloudy
6:53 PM 39.0 °F - 28.9 °F 67% 29.34 in 10.0 mi Calm Calm - N/A   Overcast
7:53 PM 39.9 °F 30.5 °F 30.0 °F 68% 29.33 in 10.0 mi SW 19.6 mph - N/A   Mostly Cloudy
8:15 PM 41.0 °F 30.5 °F 30.9 °F 67% 29.35 in 10.0 mi WNW 26.5 mph 39.1 mph 0.00 in Rain Light Rain
8:53 PM 39.0 °F 30.6 °F 30.0 °F 70% 29.41 in 10.0 mi NW 15.0 mph 21.9 mph 0.00 in   Overcast
9:53 PM 39.9 °F 30.0 °F 28.9 °F 65% 29.40 in 10.0 mi West 21.9 mph - 0.00 in   Overcast
10:53 PM 37.0 °F 25.9 °F 30.0 °F 76% 29.40 in 10.0 mi WSW 23.0 mph - N/A   Overcast
11:53 PM 39.0 °F 29.3 °F 28.0 °F 65% 29.41 in 10.0 mi WSW 19.6 mph - N/A   Clear